1491602401.19,52941,9.75,72880.5,-7.09,-7.77,-7.77,0,*55
1491602402.44,52942,9.75,72870.3,-7.07,-7.73,-7.73,0,*58
1491602403.71,52943,9.75,72864.0,-7.09,-7.77,-7.73,0,*53
1491602404.96,52944,9.75,72874.0,-7.07,-7.77,-7.77,0,*5E
1491602406.21,52945,9.75,72878.0,-7.07,-7.77,-7.73,0,*5B
1491602407.45,52946,9.75,72872.8,-7.07,-7.77,-7.73,0,*58
1491602408.7,52947,9.75,72872.0,-7.07,-7.77,-7.73,0,*59
1491602409.96,52948,9.75,72870.5,-7.07,-7.73,-7.73,0,*52
1491602411.21,52949,9.75,72868.3,-7.07,-7.73,-7.73,0,*53
1491602412.46,52950,9.75,72872.3,-7.07,-7.73,-7.73,0,*5B
1491602413.71,52951,9.75,72886.3,-7.07,-7.77,-7.73,0,*5E
1491602414.96,52952,9.75,72890.0,-7.07,-7.77,-7.73,0,*5D
1491602416.21,52953,9.75,72894.8,-7.07,-7.73,-7.77,0,*5C
1491602417.47,52954,9.75,72896.0,-7.07,-7.73,-7.77,0,*5B
1491602418.72,52955,9.75,72898.5,-7.07,-7.77,-7.73,0,*5A
1491602419.94,52956,9.69,72892.3,-7.07,-7.87,-7.77,0,*52
1491602421.18,52957,9.69,72878.0,-7.07,-7.91,-7.91,0,*5C
1491602422.43,52958,9.75,72878.5,-7.07,-7.77,-7.77,0,*53
1491602423.68,52959,9.75,72880.5,-7.07,-7.73,-7.77,0,*56
1491602424.94,52960,9.75,72872.8,-7.07,-7.73,-7.73,0,*58
1491602426.18,52961,9.75,72882.8,-7.07,-7.77,-7.77,0,*59
1491602427.43,52962,9.75,72894.3,-7.07,-7.77,-7.77,0,*5A
1491602428.67,52963,9.75,72882.3,-7.07,-7.91,-7.91,0,*5B
1491602429.87,52964,9.75,72894.0,-7.07,-7.87,-7.87,0,*5C
1491602431.12,52965,9.75,72906.0,-7.07,-7.77,-7.77,0,*5D
1491602432.36,52966,9.75,72904.0,-7.07,-7.91,-7.77,0,*56
1491602433.59,52967,9.69,72896.8,-7.07,-7.87,-7.91,0,*58
1491602434.83,52968,9.75,72896.8,-7.07,-7.91,-7.91,0,*50
1491602436.1,52969,9.69,72886.3,-7.09,-7.95,-7.91,0,*5B
1491602437.37,52970,9.69,72870.3,-7.09,-7.95,-7.91,0,*53
1491602438.61,52971,9.75,72866.5,-7.07,-7.95,-7.91,0,*5C
1491602439.83,52972,9.75,72856.0,-7.07,-7.91,-7.87,0,*5C
1491602441.05,52973,9.75,72854.5,-7.07,-7.87,-7.91,0,*5D
1491602442.28,52974,9.75,72858.8,-7.07,-7.87,-7.77,0,*52
1491602443.5,52975,9.75,72864.5,-7.07,-7.87,-7.77,0,*53
1491602444.75,52976,9.75,72874.3,-7.07,-7.77,-7.77,0,*5F
1491602446.03,52977,9.75,72888.8,-7.09,-7.73,-7.77,0,*54
1491602447.28,52978,9.75,72884.8,-7.07,-7.73,-7.73,0,*51
1491602448.53,52979,9.75,72882.3,-7.07,-7.73,-7.73,0,*50
1491602449.79,52980,9.75,72894.8,-7.07,-7.73,-7.77,0,*52
1491602451.04,52981,9.69,72890.0,-7.07,-7.73,-7.73,0,*57
1491602452.29,52982,9.75,72892.8,-7.07,-7.73,-7.73,0,*54
1491602453.54,52983,9.69,72888.8,-7.07,-7.77,-7.77,0,*55
1491602454.79,52984,9.75,72878.3,-7.07,-7.77,-7.65,0,*51
1491602456.04,52985,9.75,72872.0,-7.07,-7.77,-7.73,0,*57
1491602457.29,52986,9.75,72876.0,-7.07,-7.65,-7.73,0,*57
1491602458.54,52987,9.69,72864.8,-7.07,-7.65,-7.65,0,*51
1491602459.79,52988,9.75,72864.8,-7.07,-7.73,-7.77,0,*5A
1491602461.06,52989,9.69,72848.0,-7.05,-7.69,-7.69,0,*5D
1491602462.33,52990,9.69,72836.8,-7.05,-7.69,-7.73,0,*5E
1491602463.6,52991,9.69,72838.3,-7.05,-7.73,-7.69,0,*5F
1491602464.88,52992,9.69,72852.3,-7.05,-7.73,-7.73,0,*57
1491602466.15,52993,9.75,72850.3,-7.05,-7.69,-7.73,0,*5D
1491602467.41,52994,9.69,72856.3,-7.05,-7.69,-7.69,0,*51
1491602468.68,52995,9.75,72858.0,-7.05,-7.69,-7.73,0,*5B
1491602469.96,52996,9.69,72840.8,-7.05,-7.73,-7.73,0,*53
1491602471.24,52997,9.69,72856.0,-7.05,-7.73,-7.73,0,*52
1491602472.49,52998,9.69,72860.5,-7.07,-7.77,-7.77,0,*5F
1491602473.73,52999,9.69,72862.3,-7.07,-7.77,-7.77,0,*5E
1491602474.99,53000,9.69,72882.0,-7.07,-7.73,-7.77,0,*52
1491602476.26,53001,9.69,72880.8,-7.05,-7.73,-7.73,0,*55
1491602477.54,53002,9.69,72864.8,-7.05,-7.73,-7.69,0,*5D
1491602478.79,53003,9.69,72880.5,-7.07,-7.77,-7.73,0,*51
1491602480.06,53004,9.69,72888.0,-7.09,-7.77,-7.73,0,*58
1491602481.3,53005,9.69,72870.8,-7.07,-7.77,-7.77,0,*53
1491602482.56,53006,9.69,72872.5,-7.07,-7.73,-7.73,0,*50
1491602483.81,53007,9.69,72852.5,-7.07,-7.77,-7.77,0,*51
1491602485.08,53008,9.69,72860.5,-7.05,-7.73,-7.73,0,*5C
1491602486.34,53009,9.69,72892.8,-7.03,-7.73,-7.73,0,*5B
1491602487.61,53010,9.69,72892.3,-7.05,-7.73,-7.73,0,*55
1491602488.86,53011,9.69,72904.0,-7.05,-7.83,-7.73,0,*5B
1491602490.12,53012,9.69,72914.8,-7.07,-7.73,-7.73,0,*55
1491602491.36,53013,9.69,72898.3,-7.07,-7.77,-7.73,0,*50
1491602492.61,53014,9.69,72898.0,-7.05,-7.83,-7.73,0,*5E
1491602493.86,53015,9.69,72892.3,-7.05,-7.83,-7.73,0,*5F
1491602495.13,53016,9.69,72892.3,-7.05,-7.73,-7.69,0,*58
1491602496.38,53017,9.69,72886.5,-7.05,-7.83,-7.73,0,*5D
1491602497.63,53018,9.69,72888.8,-7.05,-7.73,-7.87,0,*56
1491602498.91,53019,9.69,72886.8,-7.05,-7.73,-7.73,0,*5C
1491602500.18,53020,9.69,72880.3,-7.05,-7.69,-7.73,0,*5D
1491602501.45,53021,9.69,72868.5,-7.05,-7.69,-7.73,0,*5C
1491602502.72,53022,9.69,72866.3,-7.05,-7.69,-7.69,0,*54
1491602503.99,53023,9.69,72874.5,-7.05,-7.73,-7.73,0,*55
1491602505.27,53024,9.69,72858.5,-7.05,-7.73,-7.73,0,*52
1491602506.54,53025,9.69,72860.3,-7.05,-7.69,-7.73,0,*58
1491602507.81,53026,9.69,72876.3,-7.05,-7.69,-7.73,0,*5B
1491602509.05,53027,9.69,72908.8,-7.03,-7.69,-7.69,0,*57
1491602510.32,53028,9.69,72918.8,-7.05,-7.69,-7.73,0,*55
1491602511.6,53029,9.69,72906.8,-7.05,-7.73,-7.73,0,*5F
1491602512.88,53030,9.69,72914.0,-7.05,-7.73,-7.73,0,*57
1491602514.16,53031,9.69,72912.3,-7.05,-7.73,-7.73,0,*56
1491602515.42,53032,9.69,72930.8,-7.05,-7.69,-7.69,0,*55
1491602516.69,53033,9.69,72898.0,-7.05,-7.73,-7.69,0,*5F
1491602517.96,53034,9.69,72888.3,-7.05,-7.69,-7.73,0,*58
1491602519.24,53035,9.69,72894.3,-7.05,-7.73,-7.73,0,*52
1491602520.49,53036,9.69,72848.5,-7.05,-7.83,-7.73,0,*5E
1491602521.77,53037,9.69,72866.0,-7.05,-7.73,-7.73,0,*50
1491602523.04,53038,9.69,72864.8,-7.05,-7.73,-7.73,0,*5F
1491602524.29,53039,9.69,72834.0,-7.05,-7.83,-7.73,0,*51
1491602525.57,53040,9.69,72888.5,-7.05,-7.73,-7.73,0,*50
1491602526.79,53041,9.69,72888.0,-7.07,-7.87,-7.77,0,*5C
1491602528.01,53042,9.69,72886.0,-7.07,-7.87,-7.91,0,*57
1491602529.24,53043,9.69,72876.3,-7.07,-7.87,-7.77,0,*5E
1491602530.46,53044,9.69,72864.5,-7.07,-7.87,-7.77,0,*59
1491602531.7,53045,9.69,72880.3,-7.05,-7.83,-7.73,0,*5A
1491602532.98,53046,9.69,72878.0,-7.05,-7.73,-7.73,0,*56
1491602534.26,53047,9.69,72884.3,-7.05,-7.73,-7.73,0,*57
1491602535.54,53048,9.69,72898.5,-7.05,-7.73,-7.73,0,*58
1491602536.81,53049,9.69,72906.3,-7.05,-7.69,-7.73,0,*52
1491602538.09,53050,9.69,72908.8,-7.05,-7.73,-7.73,0,*51
1491602539.36,53051,9.69,72914.3,-7.05,-7.73,-7.73,0,*50
1491602540.64,53052,9.69,72922.8,-7.05,-7.73,-7.73,0,*53
1491602541.84,53053,9.69,72920.5,-7.03,-7.83,-7.83,0,*54
1491602543.06,53054,9.69,72876.0,-7.05,-7.87,-7.83,0,*51
1491602544.29,53055,9.69,72886.0,-7.05,-7.87,-7.87,0,*54
1491602545.51,53056,9.69,72892.8,-7.05,-7.83,-7.83,0,*57
1491602546.73,53057,9.69,72896.3,-7.05,-7.83,-7.83,0,*56
1491602547.96,53058,9.75,72896.8,-7.05,-7.83,-7.83,0,*59
1491602549.18,53059,9.69,72898.3,-7.05,-7.83,-7.83,0,*58
1491602550.43,53060,9.69,72900.0,-7.05,-7.73,-7.83,0,*5D
1491602551.63,53061,9.69,72906.5,-7.03,-7.87,-7.83,0,*51
1491602552.86,53062,9.69,72906.0,-7.05,-7.83,-7.87,0,*54
1491602554.1,53063,9.69,72906.8,-7.05,-7.99,-7.87,0,*5E
1491602555.37,53064,9.69,72896.5,-7.05,-7.91,-7.99,0,*5E
1491602556.64,53065,9.69,72902.5,-7.05,-7.91,-7.91,0,*57
1491602557.88,53066,9.69,72902.0,-7.05,-7.87,-7.91,0,*53
1491602559.1,53067,9.75,72910.8,-7.05,-7.83,-7.83,0,*55
1491602560.3,53068,9.69,72910.0,-7.07,-7.87,-7.83,0,*5C
1491602561.5,53069,9.69,72892.0,-7.07,-7.87,-7.87,0,*59
1491602562.7,53070,9.75,72890.3,-7.07,-7.87,-7.87,0,*51
1491602563.92,53071,9.69,72890.5,-7.07,-7.87,-7.77,0,*5F
1491602565.15,53072,9.69,72892.8,-7.07,-7.87,-7.77,0,*5C
1491602566.37,53073,9.69,72888.8,-7.07,-7.87,-7.77,0,*5D
1491602567.64,53074,9.69,72890.8,-7.05,-7.73,-7.69,0,*5C
1491602568.92,53075,9.69,72882.5,-7.05,-7.73,-7.73,0,*56
1491602570.2,53076,9.75,72886.3,-7.05,-7.73,-7.73,0,*55
1491602571.47,53077,9.75,72882.3,-7.05,-7.69,-7.73,0,*5F
1491602572.72,53078,9.69,72856.5,-7.03,-7.73,-7.73,0,*5D
1491602574.0,53079,9.69,72854.5,-7.05,-7.73,-7.69,0,*51
1491602575.27,53080,9.69,72856.8,-7.05,-7.73,-7.69,0,*57
1491602576.52,53081,9.69,72820.5,-7.07,-7.73,-7.73,0,*5F
1491602577.78,53082,9.69,72906.5,-7.05,-7.73,-7.83,0,*51
1491602579.02,53083,9.69,72896.3,-7.05,-7.83,-7.73,0,*50
1491602580.25,53084,9.69,72898.3,-7.05,-7.87,-7.87,0,*58
1491602581.47,53085,9.69,72898.8,-7.05,-7.87,-7.87,0,*59
1491602582.73,53086,9.69,72874.0,-7.05,-7.99,-8.03,0,*56
1491602583.99,53087,9.69,72850.3,-7.05,-8.03,-8.03,0,*5B
1491602585.24,53088,9.69,72796.8,-7.07,-7.95,-8.03,0,*56
1491602586.5,53089,9.69,72794.0,-7.09,-7.95,-7.95,0,*59
1491602587.74,53090,9.69,72826.3,-7.07,-7.91,-7.91,0,*5F
1491602588.94,53091,9.69,72824.3,-7.07,-7.87,-7.87,0,*5E
1491602590.19,53092,9.69,72838.0,-7.07,-7.91,-7.91,0,*5D
1491602591.43,53093,9.69,72832.0,-7.09,-7.87,-7.91,0,*55
1491602592.63,53094,9.69,72850.8,-7.07,-7.87,-7.87,0,*5B
1491602593.83,53095,9.69,72862.8,-7.07,-7.87,-7.87,0,*5A
1491602595.05,53096,9.69,72850.5,-7.07,-7.87,-7.91,0,*5E
1491602596.27,53097,9.69,72856.5,-7.07,-7.87,-7.91,0,*5F
1491602597.49,53098,9.69,72874.3,-7.07,-7.91,-7.87,0,*50
1491602598.71,53099,9.69,72870.8,-7.07,-7.91,-7.87,0,*51
1491602599.94,53100,9.69,72862.5,-7.09,-7.87,-7.87,0,*59
1491602601.14,53101,9.69,72858.0,-7.07,-7.87,-7.87,0,*56
1491602602.36,53102,9.69,72862.8,-7.09,-7.87,-7.87,0,*5B
1491602603.58,53103,9.69,72884.3,-7.07,-7.77,-7.87,0,*5B
1491602604.83,53104,9.69,72878.5,-7.07,-7.77,-7.77,0,*53
1491602606.08,53105,9.69,72884.5,-7.07,-7.73,-7.73,0,*52
1491602607.33,53106,9.69,72878.5,-7.07,-7.77,-7.77,0,*51
1491602608.58,53107,9.69,72864.5,-7.07,-7.77,-7.77,0,*50
1491602609.85,53108,9.69,72844.0,-7.05,-7.69,-7.73,0,*56
1491602611.1,53109,9.69,72824.8,-7.07,-7.77,-7.77,0,*5E
1491602612.37,53110,9.69,72830.0,-7.05,-7.73,-7.69,0,*5F
1491602613.64,53111,9.69,72840.0,-7.05,-7.69,-7.73,0,*5E
1491602614.91,53112,9.69,72874.5,-7.05,-7.73,-7.69,0,*5D
1491602616.18,53113,9.69,72876.5,-7.05,-7.73,-7.69,0,*5C
1491602617.43,53114,9.69,72872.3,-7.03,-7.73,-7.69,0,*5D
1491602618.71,53115,9.69,72882.5,-7.05,-7.69,-7.73,0,*5A
1491602619.96,53116,9.69,72912.3,-7.07,-7.73,-7.73,0,*50
1491602621.21,53117,9.69,72870.8,-7.07,-7.73,-7.73,0,*51
1491602622.46,53118,9.69,72826.8,-7.07,-7.77,-7.77,0,*5E
1491602623.66,53119,9.69,72804.3,-7.07,-7.87,-7.87,0,*5F
1491602624.86,53120,9.69,72858.3,-7.07,-7.87,-7.87,0,*55
1491602626.1,53121,9.69,72826.5,-7.07,-7.91,-7.91,0,*54
1491602627.33,53122,9.69,72806.3,-7.07,-7.77,-7.87,0,*58
1491602628.55,53123,9.69,72794.5,-7.07,-7.91,-7.87,0,*51
1491602629.77,53124,9.69,72900.0,-7.07,-7.91,-7.87,0,*56
1491602630.97,53125,9.69,72904.5,-7.07,-7.87,-7.87,0,*50
1491602632.21,53126,9.69,72872.0,-7.07,-7.91,-7.91,0,*53
1491602633.43,53127,9.69,72880.5,-7.05,-7.87,-7.87,0,*50
1491602634.65,53128,9.69,72882.8,-7.07,-7.87,-7.91,0,*5A
1491602635.88,53129,9.69,72890.8,-7.05,-7.87,-7.87,0,*5E
1491602637.12,53130,9.69,72874.0,-7.09,-7.91,-7.87,0,*5D
1491602638.36,53131,9.69,72884.3,-7.07,-7.91,-7.91,0,*55
1491602639.61,53132,9.69,72874.3,-7.07,-7.91,-7.91,0,*56
1491602640.81,53133,9.69,72884.0,-7.07,-7.87,-7.87,0,*57
1491602642.01,53134,9.69,72890.8,-7.07,-7.87,-7.87,0,*50
1491602643.23,53135,9.69,72904.3,-7.07,-7.87,-7.91,0,*56
1491602644.42,53136,9.69,72902.3,-7.07,-7.87,-7.87,0,*52
1491602645.65,53137,9.69,72904.8,-7.07,-7.87,-7.91,0,*54
1491602646.87,53138,9.69,72902.5,-7.07,-7.87,-7.77,0,*53
1491602648.09,53139,9.69,72898.5,-7.07,-7.77,-7.87,0,*52
1491602649.32,53140,9.69,72894.3,-7.07,-7.77,-7.87,0,*5C
1491602650.54,53141,9.69,72914.0,-7.07,-7.77,-7.87,0,*5D
1491602651.79,53142,9.69,72902.0,-7.07,-7.77,-7.77,0,*51
1491602653.03,53143,9.69,72898.0,-7.07,-7.77,-7.77,0,*50
1491602654.28,53144,9.69,72912.8,-7.07,-7.77,-7.77,0,*57
1491602655.54,53145,9.69,72908.3,-7.07,-7.73,-7.77,0,*52
1491602656.76,53146,9.69,72902.3,-7.07,-7.77,-7.87,0,*5A
1491602657.99,53147,9.69,72908.3,-7.07,-7.73,-7.87,0,*5F
1491602659.24,53148,9.69,72900.5,-7.05,-7.83,-7.73,0,*56
1491602660.51,53149,9.69,72906.0,-7.05,-7.73,-7.69,0,*53
1491602661.77,53150,9.69,72904.5,-7.05,-7.69,-7.69,0,*50
1491602663.05,53151,9.69,72914.0,-7.05,-7.73,-7.69,0,*5A
1491602664.32,53152,9.69,72922.3,-7.05,-7.69,-7.73,0,*59
1491602665.57,53153,9.69,72908.0,-7.07,-7.73,-7.77,0,*55
1491602666.81,53154,9.69,72902.8,-7.03,-7.69,-7.69,0,*52
1491602668.08,53155,9.69,72904.5,-7.05,-7.69,-7.73,0,*5E
1491602669.36,53156,9.69,72904.5,-7.05,-7.69,-7.73,0,*5D
1491602670.63,53157,9.69,72900.0,-7.05,-7.69,-7.73,0,*5C
1491602671.88,53158,9.69,72906.0,-7.03,-7.73,-7.69,0,*55
1491602673.15,53159,9.69,72918.3,-7.05,-7.69,-7.73,0,*52
1491602674.42,53160,9.69,72912.0,-7.05,-7.69,-7.61,0,*5B
1491602675.68,53161,9.69,72906.8,-7.05,-7.69,-7.69,0,*52
1491602676.96,53162,9.69,72912.0,-7.05,-7.73,-7.69,0,*5A
1491602678.23,53163,9.69,72916.8,-7.05,-7.73,-7.69,0,*5B
1491602679.5,53164,9.69,72904.3,-7.05,-7.69,-7.69,0,*57
1491602680.77,53165,9.69,72910.8,-7.05,-7.73,-7.73,0,*56
1491602682.04,53166,9.69,72910.8,-7.05,-7.69,-7.69,0,*55
1491602683.31,53167,9.69,72912.3,-7.05,-7.69,-7.69,0,*54
1491602684.58,53168,9.69,72900.8,-7.05,-7.73,-7.73,0,*5B
1491602685.85,53169,9.69,72896.0,-7.05,-7.69,-7.69,0,*5A
1491602687.12,53170,9.69,72900.8,-7.05,-7.73,-7.69,0,*59
1491602688.4,53171,9.69,72898.0,-7.05,-7.73,-7.73,0,*53
1491602689.68,53172,9.69,72900.3,-7.05,-7.73,-7.73,0,*50
1491602690.95,53173,9.69,72906.5,-7.05,-7.73,-7.73,0,*51
1491602692.2,53174,9.69,72898.3,-7.05,-7.83,-7.73,0,*59
1491602693.47,53175,9.69,72894.5,-7.05,-7.69,-7.69,0,*57
1491602694.71,53176,9.69,72900.3,-7.03,-7.69,-7.73,0,*59
1491602695.97,53177,9.69,72916.8,-7.05,-7.73,-7.83,0,*5A
1491602697.22,53178,9.69,72908.8,-7.07,-7.73,-7.73,0,*58
1491602698.5,53179,9.69,72896.5,-7.05,-7.73,-7.73,0,*5B
1491602699.72,53180,9.69,72888.0,-7.05,-7.83,-7.83,0,*5D
1491602701.0,53181,9.69,72900.5,-7.05,-7.73,-7.73,0,*5C
1491602702.27,53182,9.69,72906.8,-7.05,-7.73,-7.69,0,*54
1491602703.5,53183,9.69,72898.3,-7.03,-7.73,-7.83,0,*57
1491602704.78,53184,9.69,72902.5,-7.05,-7.73,-7.73,0,*59
1491602706.04,53185,9.69,72916.5,-7.03,-7.73,-7.73,0,*5E
1491602707.3,53186,9.69,72914.0,-7.05,-7.69,-7.69,0,*5B
1491602708.54,53187,9.69,72904.3,-7.03,-7.69,-7.69,0,*5C
1491602709.79,53188,9.69,72902.3,-7.03,-7.73,-7.69,0,*58
1491602711.06,53189,9.69,72904.3,-7.05,-7.69,-7.69,0,*54
1491602712.34,53190,9.69,72900.5,-7.05,-7.73,-7.73,0,*5C
1491602713.59,53191,9.69,72908.3,-7.03,-7.73,-7.73,0,*5B
1491602714.86,53192,9.69,72908.5,-7.05,-7.69,-7.73,0,*55
1491602716.14,53193,9.69,72910.0,-7.05,-7.73,-7.73,0,*5F
1491602717.41,53194,9.69,72914.8,-7.05,-7.69,-7.73,0,*53
1491602718.68,53195,9.69,72900.3,-7.05,-7.73,-7.69,0,*52
1491602719.96,53196,9.69,72892.8,-7.05,-7.73,-7.73,0,*5A
1491602721.23,53197,9.69,72888.0,-7.05,-7.73,-7.69,0,*50
1491602722.51,53198,9.69,72894.8,-7.05,-7.73,-7.69,0,*5F
1491602723.75,53199,9.69,72892.0,-7.05,-7.83,-7.73,0,*5A
1491602725.03,53200,9.69,72892.8,-7.05,-7.73,-7.73,0,*56
1491602726.31,53201,9.69,72890.0,-7.05,-7.73,-7.73,0,*57
1491602727.59,53202,9.69,72880.5,-7.05,-7.73,-7.73,0,*54
1491602728.81,53203,9.69,72898.3,-7.03,-7.83,-7.69,0,*57
1491602730.03,53204,9.69,72902.8,-7.03,-7.83,-7.73,0,*5B
1491602731.28,53205,9.69,72930.0,-7.05,-7.73,-7.83,0,*5C
1491602732.48,53206,9.69,72918.8,-7.03,-7.83,-7.83,0,*56
1491602733.69,53207,9.69,72894.0,-7.03,-7.83,-7.83,0,*57
1491602734.89,53208,9.69,72880.0,-7.03,-7.83,-7.83,0,*58
1491602736.11,53209,9.69,72888.0,-7.05,-7.87,-7.83,0,*5B
1491602737.33,53210,9.63,72890.3,-7.05,-7.83,-7.83,0,*57
1491602738.56,53211,9.69,72898.8,-7.05,-7.83,-7.87,0,*52
1491602739.76,53212,9.69,72892.8,-7.03,-7.83,-7.83,0,*53
1491602740.98,53213,9.69,72894.5,-7.05,-7.83,-7.83,0,*54
1491602742.2,53214,9.69,72898.3,-7.05,-7.83,-7.83,0,*53
1491602743.46,53215,9.69,72896.5,-7.05,-7.73,-7.83,0,*5D
1491602744.68,53216,9.69,72894.0,-7.05,-7.83,-7.83,0,*51
1491602745.91,53217,9.69,72888.5,-7.03,-7.73,-7.87,0,*5D
1491602747.13,53218,9.69,72896.3,-7.03,-7.69,-7.83,0,*5D
1491602748.4,53219,9.69,72898.3,-7.05,-7.69,-7.69,0,*5E
1491602749.66,53220,9.69,72900.0,-7.05,-7.69,-7.69,0,*54
1491602750.92,53221,9.69,72896.0,-7.03,-7.73,-7.73,0,*53
1491602752.17,53222,9.69,72892.3,-7.03,-7.73,-7.73,0,*50
1491602753.42,53223,9.69,72890.8,-7.05,-7.83,-7.73,0,*58
1491602754.62,53224,9.69,72886.3,-7.03,-7.83,-7.83,0,*56
1491602755.88,53225,9.69,72888.0,-7.05,-7.73,-7.83,0,*5E
1491602757.13,53226,9.69,72888.0,-7.03,-7.73,-7.73,0,*54
1491602758.4,53227,9.69,72902.5,-7.05,-7.69,-7.73,0,*58
1491602759.68,53228,9.63,72900.3,-7.05,-7.73,-7.73,0,*5C
1491602760.93,53229,9.63,72892.0,-7.03,-7.73,-7.69,0,*50
1491602762.2,53230,9.63,72902.3,-7.05,-7.69,-7.73,0,*5E
1491602763.47,53231,9.69,72894.3,-7.05,-7.69,-7.73,0,*5F
1491602764.75,53232,9.63,72894.5,-7.05,-7.73,-7.73,0,*57
1491602766.0,53233,9.69,72898.3,-7.03,-7.73,-7.73,0,*50
1491602767.28,53234,9.63,72912.0,-7.05,-7.73,-7.73,0,*51
1491602768.53,53235,9.69,72888.3,-7.05,-7.73,-7.83,0,*5F
1491602769.73,53236,9.69,72898.5,-7.03,-7.87,-7.83,0,*51
1491602770.95,53237,9.69,72902.3,-7.05,-7.83,-7.83,0,*52
1491602772.2,53238,9.63,72896.3,-7.05,-7.83,-7.73,0,*52
1491602773.48,53239,9.63,72896.3,-7.05,-7.73,-7.69,0,*57
1491602774.72,53240,9.69,72888.0,-7.03,-7.69,-7.69,0,*54
1491602775.97,53241,9.69,72910.3,-7.03,-7.69,-7.73,0,*5E
1491602777.21,53242,9.69,72900.5,-7.03,-7.69,-7.69,0,*56
1491602778.49,53243,9.69,72912.3,-7.05,-7.73,-7.73,0,*51
1491602779.73,53244,9.63,72910.8,-7.03,-7.69,-7.73,0,*5B
1491602781.01,53245,9.69,72914.0,-7.05,-7.73,-7.69,0,*5C
1491602782.28,53246,9.63,72902.8,-7.05,-7.73,-7.69,0,*5F
1491602783.56,53247,9.63,72894.8,-7.05,-7.73,-7.73,0,*55
1491602784.81,53248,9.69,72896.5,-7.03,-7.73,-7.73,0,*5C
1491602786.08,53249,9.63,72892.0,-7.05,-7.73,-7.69,0,*50
1491602787.31,53250,9.69,72888.5,-7.05,-7.83,-7.83,0,*53
1491602788.55,53251,9.63,72888.3,-7.05,-7.83,-7.69,0,*56
1491602789.83,53252,9.69,72892.5,-7.05,-7.73,-7.73,0,*51
1491602791.09,53253,9.69,72896.0,-7.05,-7.69,-7.69,0,*50
1491602792.37,53254,9.63,72892.5,-7.05,-7.73,-7.73,0,*57
1491602793.64,53255,9.69,72896.3,-7.05,-7.69,-7.69,0,*56
1491602794.91,53256,9.69,72898.0,-7.05,-7.69,-7.73,0,*5E
1491602796.15,53257,9.69,72890.5,-7.03,-7.69,-7.69,0,*52
1491602797.42,53258,9.69,72886.0,-7.05,-7.73,-7.69,0,*50
1491602798.69,53259,9.69,72884.3,-7.05,-7.69,-7.69,0,*5A
1491602799.96,53260,9.63,72884.5,-7.05,-7.69,-7.61,0,*58
1491602801.24,53261,9.69,72882.8,-7.05,-7.73,-7.61,0,*52
1491602802.49,53262,9.63,72874.8,-7.03,-7.73,-7.69,0,*5F
1491602803.74,53263,9.63,72872.3,-7.03,-7.73,-7.69,0,*5E
1491602805.0,53264,9.63,72878.3,-7.03,-7.73,-7.73,0,*52
1491602806.27,53265,9.63,72882.0,-7.05,-7.69,-7.73,0,*5E
1491602807.53,53266,9.69,72874.8,-7.05,-7.69,-7.69,0,*56
1491602808.78,53267,9.69,72866.3,-7.03,-7.69,-7.73,0,*5A
1491602810.05,53268,9.69,72860.8,-7.05,-7.73,-7.69,0,*53
1491602811.32,53269,9.63,72852.5,-7.05,-7.69,-7.61,0,*51
1491602812.57,53270,9.63,72860.3,-7.03,-7.69,-7.73,0,*5C
1491602813.85,53271,9.63,72862.5,-7.05,-7.73,-7.73,0,*50
1491602815.09,53272,9.63,72856.5,-7.03,-7.69,-7.69,0,*55
1491602816.34,53273,9.69,72854.5,-7.03,-7.73,-7.69,0,*5F
1491602817.6,53274,9.63,72858.3,-7.03,-7.73,-7.73,0,*53
1491602818.87,53275,9.69,72856.0,-7.05,-7.69,-7.73,0,*5F
1491602820.1,53276,9.63,72858.0,-7.03,-7.73,-7.83,0,*5E
1491602821.35,53277,9.63,72856.8,-7.03,-7.73,-7.69,0,*5B
1491602822.59,53278,9.69,72854.3,-7.03,-7.69,-7.69,0,*5F
1491602823.85,53279,9.63,72848.8,-7.03,-7.73,-7.73,0,*5E
1491602825.05,53280,9.63,72846.3,-7.03,-7.87,-7.87,0,*58
1491602826.27,53281,9.63,72866.0,-7.05,-7.87,-7.87,0,*5F
1491602827.47,53282,9.69,72876.0,-7.03,-7.87,-7.87,0,*5A
1491602828.67,53283,9.63,72880.8,-7.03,-7.87,-7.83,0,*5F
1491602829.89,53284,9.69,72892.5,-7.05,-7.83,-7.83,0,*5A
1491602831.15,53285,9.63,72888.8,-7.05,-7.73,-7.83,0,*54
1491602832.35,53286,9.63,72888.8,-7.03,-7.87,-7.83,0,*5A
1491602833.57,53287,9.63,72892.8,-7.03,-7.83,-7.73,0,*50
1491602834.79,53288,9.63,72892.8,-7.05,-7.87,-7.83,0,*52
1491602835.99,53289,9.63,72892.3,-7.03,-7.87,-7.87,0,*51
1491602837.22,53290,9.63,72900.5,-7.05,-7.87,-7.83,0,*5B
1491602838.44,53291,9.69,72896.8,-7.05,-7.83,-7.83,0,*5E
1491602839.64,53292,9.69,72898.8,-7.03,-7.83,-7.83,0,*5B
1491602840.89,53293,9.63,72896.3,-7.03,-7.73,-7.73,0,*5A
1491602842.13,53294,9.63,72898.3,-7.03,-7.73,-7.83,0,*52
1491602843.33,53295,9.69,72892.5,-7.03,-7.83,-7.83,0,*5C
1491602844.53,53296,9.69,72890.0,-7.03,-7.83,-7.83,0,*5F
1491602845.75,53297,9.69,72886.5,-7.05,-7.87,-7.87,0,*58
1491602846.95,53298,9.63,72870.3,-7.03,-7.83,-7.87,0,*55
1491602848.15,53299,9.69,72864.0,-7.03,-7.83,-7.83,0,*50
1491602849.4,53300,9.69,72878.0,-7.05,-7.83,-7.73,0,*58
1491602850.65,53301,9.63,72874.5,-7.03,-7.73,-7.69,0,*5B
1491602851.89,53302,9.63,72874.8,-7.03,-7.69,-7.73,0,*58
1491602853.15,53303,9.63,72884.8,-7.03,-7.73,-7.73,0,*52
1491602854.42,53304,9.69,72884.0,-7.05,-7.73,-7.69,0,*58
1491602855.7,53305,9.63,72870.5,-7.05,-7.73,-7.73,0,*52
1491602856.95,53306,9.69,72876.8,-7.03,-7.73,-7.73,0,*57
1491602858.22,53307,9.69,72876.8,-7.05,-7.69,-7.69,0,*50
1491602859.47,53308,9.69,72884.3,-7.05,-7.73,-7.83,0,*50
1491602860.7,53309,9.69,72898.5,-7.03,-7.69,-7.83,0,*5C
1491602861.97,53310,9.63,72900.5,-7.05,-7.69,-7.73,0,*5D
1491602863.19,53311,9.69,72890.5,-7.03,-7.83,-7.73,0,*5E
1491602864.47,53312,9.69,72898.5,-7.05,-7.73,-7.73,0,*54
1491602865.72,53313,9.69,72894.8,-7.05,-7.83,-7.73,0,*5A
1491602866.99,53314,9.69,72902.8,-7.05,-7.73,-7.69,0,*59
1491602868.27,53315,9.69,72900.0,-7.05,-7.73,-7.73,0,*53
1491602869.51,53316,9.69,72900.3,-7.03,-7.69,-7.69,0,*56
1491602870.76,53317,9.69,72900.8,-7.03,-7.69,-7.73,0,*5C
1491602872.02,53318,9.63,72900.0,-7.05,-7.69,-7.69,0,*5E
1491602873.3,53319,9.69,72902.3,-7.05,-7.73,-7.73,0,*5F
1491602874.55,53320,9.69,72906.0,-7.03,-7.69,-7.69,0,*53
1491602875.81,53321,9.69,72908.5,-7.05,-7.69,-7.69,0,*54
1491602877.08,53322,9.63,72904.3,-7.05,-7.73,-7.69,0,*5C
1491602878.35,53323,9.69,72894.0,-7.05,-7.69,-7.73,0,*5D
1491602879.61,53324,9.69,72890.5,-7.03,-7.73,-7.73,0,*57
1491602880.86,53325,9.69,72888.3,-7.03,-7.73,-7.73,0,*56
1491602882.12,53326,9.69,72884.8,-7.03,-7.73,-7.73,0,*55
1491602883.39,53327,9.69,72894.5,-7.05,-7.69,-7.73,0,*59
1491602884.61,53328,9.69,72900.0,-7.05,-7.83,-7.87,0,*59
1491602885.84,53329,9.69,72902.0,-7.03,-7.83,-7.73,0,*55
1491602887.06,53330,9.63,72892.3,-7.03,-7.83,-7.73,0,*5D
1491602888.34,53331,9.63,72878.3,-7.05,-7.73,-7.73,0,*55
1491602889.59,53332,9.63,72866.0,-7.03,-7.73,-7.73,0,*50
1491602890.85,53333,9.69,72878.3,-7.03,-7.73,-7.73,0,*51
1491602892.1,53334,9.63,72898.3,-7.05,-7.73,-7.83,0,*5F
1491602893.3,53335,9.63,72896.0,-7.03,-7.83,-7.83,0,*57
1491602894.55,53336,9.69,72892.5,-7.03,-7.73,-7.73,0,*54
1491602895.81,53337,9.69,72898.5,-7.03,-7.73,-7.73,0,*55
1491602897.06,53338,9.63,72898.5,-7.05,-7.83,-7.73,0,*53
1491602898.33,53339,9.63,72896.5,-7.05,-7.73,-7.73,0,*5D
1491602899.61,53340,9.69,72912.3,-7.05,-7.73,-7.69,0,*58
1491602900.86,53341,9.63,72912.3,-7.03,-7.73,-7.73,0,*54
1491602902.12,53342,9.69,72914.5,-7.03,-7.73,-7.73,0,*57
1491602903.39,53343,9.63,72906.5,-7.05,-7.69,-7.73,0,*5B
1491602904.66,53344,9.69,72894.3,-7.05,-7.73,-7.73,0,*57
1491602905.91,53345,9.69,72896.3,-7.05,-7.83,-7.73,0,*59
1491602907.11,53346,9.63,72888.5,-7.03,-7.83,-7.83,0,*53
1491602908.39,53347,9.69,72894.0,-7.05,-7.73,-7.73,0,*54
1491602909.67,53348,9.63,72898.3,-7.05,-7.73,-7.73,0,*5B
1491602910.94,53349,9.69,72892.5,-7.05,-7.73,-7.69,0,*51
1491602912.19,53350,9.63,72916.0,-7.03,-7.73,-7.73,0,*54
1491602913.46,53351,9.63,72910.3,-7.05,-7.69,-7.69,0,*53
1491602914.7,53352,9.63,72900.5,-7.03,-7.69,-7.69,0,*56
1491602915.98,53353,9.69,72894.0,-7.05,-7.73,-7.69,0,*5A
1491602917.21,53354,9.63,72872.3,-7.03,-7.73,-7.83,0,*5F
1491602918.46,53355,9.63,72870.0,-7.03,-7.73,-7.73,0,*51
1491602919.74,53356,9.63,72864.3,-7.05,-7.73,-7.73,0,*54
1491602921.01,53357,9.69,72884.0,-7.01,-7.69,-7.77,0,*5E
1491602922.26,53358,9.63,72896.5,-7.03,-7.73,-7.73,0,*5C
1491602923.51,53359,9.63,72892.5,-7.03,-7.69,-7.73,0,*56
1491602924.79,53360,9.69,72888.8,-7.05,-7.73,-7.73,0,*51
1491602926.01,53361,9.63,72884.5,-7.03,-7.83,-7.73,0,*59